Regional Weather Roundup
Issued by NWS

Home | Current Version | Previous Version | Text Only | Print | Product List | Glossary On
Versions: 1 2 3 4 5 6 7 8 9 10 11 12 13 14 15 16 17 18 19 20 21 22 23 24 25 26 27 28 29 30 31 32 33 34 35 36 37 38 39 40 41 42 43 44 45 46 47 48 49 50
000
ASUS44 KFWD 152215
RWRTX
NORTH TEXAS HOURLY WEATHER ROUNDUP
NATIONAL WEATHER SERVICE FORT WORTH TX
400 PM CST FRI DEC 15 2017

NOTE: "FAIR" INDICATES FEW OR NO CLOUDS BELOW 12,000 FEET WITH NO
SIGNIFICANT WEATHER AND/OR OBSTRUCTIONS TO VISIBILITY.

TXZ118-119-152300-
DALLAS/FORT WORTH METROPLEX

CITY           SKY/WX    TMP DP  RH WIND       PRES   REMARKS
DFW AIRPORT    MOSUNNY   57  22  25 VRB3      30.20F
DALLAS LOVE    MOSUNNY   55  24  30 NW3       30.22F
FTW MEACHAM    SUNNY     55  23  28 W3        30.21F
DAL-EXECUTIVE  SUNNY     54  24  31 W6        30.21F
FTW-ALLIANCE   MOSUNNY   54  21  27 NW6       30.21F
FTW-NAS-JRB    MOSUNNY   55  22  27 VRB5      30.22F
FTW-SPINKS     SUNNY     54  25  32 CALM      30.23F
ARLINGTON      SUNNY     53  23  31 CALM      30.22F
GRAND PRAIRIE  SUNNY     54  21  28 W5        30.23F
MESQUITE       SUNNY     54  21  28 W7        30.23F
LANCASTER      SUNNY     54  24  31 NW8       30.24F
$$

TXZ091>094-102>105-117-120-121-131>134-152300-
NORTH CENTRAL TEXAS

CITY           SKY/WX    TMP DP  RH WIND       PRES   REMARKS
SHRMAN/DENISON SUNNY     52  24  34 NW5       30.22F
GAINESVILLE    SUNNY     52  20  28 W6        30.22F
BOWIE          SUNNY     52  21  29 SW3       30.20F
BRIDGEPORT     SUNNY     53  23  31 N3        30.22F
DECATUR        SUNNY     53  22  29 W6        30.19F
DENTON         SUNNY     54  23  30 NW8       30.21F
MCKINNEY       SUNNY     53  23  31 NW9       30.21F
BONHAM         SUNNY     51  23  33 W7        30.22S
GREENVILLE     SUNNY     55  28  35 W5        30.22S
ROCKWALL       SUNNY     53  27  37 NW7       30.22F
TERRELL        SUNNY     53  24  32 W8        30.23S
WAXAHACHIE     SUNNY     54  28  36 N7        30.23F
CLEBURNE       SUNNY     54  23  30 N7        30.23F
GRANBURY       SUNNY     56  23  27 N3        30.23F
$$

TXZ083>090-098>101-113>116-127>130-139>142-154-155-152300-
WESTERN NORTH TEXAS

CITY           SKY/WX    TMP DP  RH WIND       PRES   REMARKS
WICHITA FALLS  MOSUNNY   54  20  26 SW7       30.19F
WF-KICKAPOO    SUNNY     55  21  27 SW7       30.23S
VERNON         SUNNY     58  13  17 SW8       30.18F
ABILENE        SUNNY     54  21  27 MISG      30.21F
ABILENE-DYESS  SUNNY     55  21  27 NW5       30.20F
GRAHAM           N/A     55  23  28 W5        30.19F
BRECKENRIDGE   SUNNY     55  21  26 CALM      30.21S
CISCO          SUNNY     54  21  28 SW5       30.22S
EASTLAND       SUNNY     54  22  28 NW7       30.21S
RANGER         SUNNY     53  24  31 W6        30.21S
MINERAL WELLS  SUNNY     55  18  23 NW6       30.20F
STEPHENVILLE   SUNNY     55  19  25 NW9       30.24S
COMANCHE       SUNNY     55  24  30 NW6       30.22F
BROWNWOOD      SUNNY     55  19  24 W3        30.22S
COLEMAN        SUNNY     56  21  24 CALM      30.21S
$$

TXZ143>147-156>162-174-175-152300-
CENTRAL TEXAS

CITY           SKY/WX    TMP DP  RH WIND       PRES   REMARKS
WACO           SUNNY     57  23  26 W5        30.23F
WACO-TSTC      SUNNY     57  25  28 CALM      30.24S
WACO-MCGREGOR  SUNNY     55  29  36 N6        30.23F
HILLSBORO      SUNNY     55  26  33 NW6       30.22F
CORSICANA      SUNNY     55  25  31 NW8       30.23F
MEXIA          SUNNY     54  24  30 NW5       30.22F
HEARNE         SUNNY     57  29  35 NW6       30.24F
CAMERON        SUNNY     56  28  33 CALM      30.23F
TEMPLE         SUNNY     56  25  30 NE5       30.23F
KILLEEN        SUNNY     56  22  27 N10       30.20F
KILLEEN-SKYLRK SUNNY     56  25  30 VRB6      30.22F
FORT HOOD      SUNNY     56  23  28 N9        30.18F
GATESVILLE     SUNNY     55  21  26 CALM      30.24F
HAMILTON       SUNNY     56  23  27 N6        30.23S
LAMPASAS       SUNNY     55  22  27 N3        30.21F
$$

TXZ095>097-106>112-122>126-135>138-148>153-164>167-152300-
EAST TEXAS

CITY           SKY/WX    TMP DP  RH WIND       PRES   REMARKS
PARIS          SUNNY     51  26  37 W12       30.21S
SULPHUR SPRNGS CLOUDY    53  28  37 NW5       30.24S
MOUNT PLEASANT MOSUNNY   52  29  41 W8        30.23R
GILMER         SUNNY     54  27  35 W6        30.21S
MINEOLA        CLOUDY    54  28  37 W6        30.22S
TYLER          SUNNY     54  23  30 NW7       30.21F
LONGVIEW       SUNNY     55  30  38 W6        30.20F
MARSHALL       MOSUNNY   54  27  35 W6        30.23F
ATHENS         SUNNY     52  25  35 W3        30.21F
PALESTINE      SUNNY     55  27  34 W3        30.24S
JACKSONVILLE   SUNNY     54  29  38 NW6       30.23S
HENDERSON      SUNNY     55  29  38 W8        30.22S
CENTER         CLOUDY    52  27  38 CALM      30.23F
NACOGDOCHES    MOSUNNY   54  30  40 VRB3      30.22F
LUFKIN         SUNNY     55  30  38 N3        30.22F
$$

SUPPLEMENTAL OBSERVATIONS (NWS FORT WORTH AREA)

CITY           SKY/WX    TMP DP  RH WIND       PRES   REMARKS
DENISON DAM      N/A     52  25  35 NW2         N/A
CADDO GRASSLND   N/A     54  27  35 W6          N/A
PAT MAYSE LAKE   N/A     52  23  32 W7          N/A
GREENVILLE       N/A     54  27  35 NW6         N/A
CEDAR HILL       N/A     55  23  28 NW3         N/A
LBJ GRASSLAND    N/A     54  23  30 N5          N/A
POSSUM KINGDOM   N/A     55  23  28 NW5         N/A
GRANBURY         N/A     55  23  28 NE5         N/A
COMANCHE         N/A     55  21  26 NW6         N/A
MCGREGOR         N/A     57  25  28 VRB3        N/A
TEMPLE           N/A     57  27  30 N10         N/A
LAKE LIMESTONE   N/A     57  28  33 N5G13       N/A
ATHENS           N/A     57  28  33 NW2         N/A
$$

SUPPLEMENTAL OBSERVATIONS (NWS NORMAN AREA)

CITY           SKY/WX    TMP DP  RH WIND       PRES   REMARKS
GOODLETT         N/A     59  21  23 SW14      30.14F
ODELL            N/A     57  22  26 SW9       30.17F
CROWELL          N/A     58  22  24 SW8       30.17F
KNOX CITY        N/A     57  20  23 W10       30.19F
SEYMOUR          N/A     55  22  27 SW8       30.20F
$$

SUPPLEMENTAL OBSERVATIONS (NWS SAN ANGELO AREA)

CITY           SKY/WX    TMP DP  RH WIND       PRES   REMARKS
WEINERT          N/A     56  22  27 SW6       30.20F
HASKELL          N/A     55  20  25 SW10      30.20F
THROCKMORTON     N/A     54  27  35 W7        30.22S
STAMFORD         N/A     55  22  27 SW7       30.22S
CLYDE            N/A     53  22  30 NW6       30.22S
HAMBY            N/A     55  23  28 W3          N/A
IVIE RESERVOIR   N/A     57  25  28 SW3         N/A
COLORADO BEND    N/A     57  23  26 N3          N/A
$$

SUPPLEMENTAL OBSERVATIONS (NWS SHREVEPORT AREA)

CITY           SKY/WX    TMP DP  RH WIND       PRES   REMARKS
CLARKSVILLE      N/A     54  28  37 NW6G14      N/A
TEXARKANA        N/A     54  30  40 W2G10       N/A
LINDEN           N/A     55  30  38 W5          N/A
CADDO LAKE       N/A     55  30  38 W3          N/A
GILMER           N/A     55  27  33 W8          N/A
HENDERSON        N/A     55  28  35 W7          N/A
LUFKIN           N/A     57  32  38 MISG        N/A
N SABINE NF      N/A     55  32  41 MISG        N/A
S SABINE NF      N/A     52  32  46 E1          N/A
$$

SUPPLEMENTAL OBSERVATIONS ARE A COLLECTION OF AUTOMATED INSTRUMENTS
THAT ARE MAINTAINED BY A VARIETY OF FEDERAL AND STATE AGENCIES.
CERTAIN ELEMENTS...SUCH AS HUMIDITY VALUES AND SUSTAINED WIND
SPEEDS...MAY BE APPROXIMATED.





USA.gov is the U.S. government's official web portal to all federal, state and local government web resources and services.